CAPE
1854 1273 782 722 674 207 104 62 6 24 0 66 0 0 2 179 56 212 142 64 453 678 1005 1260 2013 2100 1628 1591 1583 1471 1360 1045 900 905 777 476 539 731 938 963 796 933 1062 1000 1021 1195 1117 837 853
1233 1025 1122 1328 490 118 204 35 0 24 67 47 3 77 137 671 599 138 21 242 443 640 1040 1044 1955 2195 1667 1786 1878 1823 1367 1022 840 796 784 830 831 823 834 878 857 964 1103 1129 1068 1033 1188 1112 1287
456 668 1570 1287 186 125 235 78 0 74 67 20 20 140 171 595 302 40 90 443 618 762 931 1161 2111 2194 1432 1370 1606 1601 1826 1330 915 984 1066 1124 1182 1435 1508 1210 1043 985 1160 1375 1337 1287 1472 1256 1146
191 1232 1660 1268 225 69 142 216 12 47 41 21 20 137 392 483 95 24 107 363 703 932 686 1567 1915 1570 1489 1111 1056 1086 1298 1420 1255 1398 1318 1369 1308 1241 1214 1229 1245 1111 1342 1105 1158 1189 1287 1481 1192
1287 1595 1291 555 77 0 38 209 57 104 32 10 2 231 268 754 520 201 208 319 561 889 554 1181 1956 1956 1895 1373 1042 1203 1169 1072 1203 1457 1314 1132 1159 1019 1087 1078 1142 1239 1292 1178 1150 1230 1399 1463 1194
506 637 304 404 60 29 169 191 124 50 59 84 0 78 408 811 373 171 271 247 212 618 621 743 1558 1798 1456 1180 969 1078 1111 1287 1321 1296 1273 1172 1144 1375 1201 1138 1214 1186 1185 1267 1427 1128 1407 1432 1249
684 935 832 886 2 24 177 374 171 54 10 10 9 101 452 778 590 283 262 275 197 422 616 714 899 1265 1234 1157 1081 1106 1075 1228 1285 1254 1098 1120 1101 1309 1309 1183 1209 1209 1203 1313 1286 1461 1207 1388 1271
826 665 481 68 11 0 314 272 86 0 109 45 137 221 232 765 778 476 190 216 274 269 492 807 840 771 783 702 1335 1333 1223 1284 1307 1308 1160 1262 1381 1398 1224 1442 1630 1509 1437 1513 1505 1521 1369 1478 1383
456 338 541 546 852 489 344 218 33 56 30 0 39 204 362 746 688 527 166 219 327 442 493 657 1065 1728 1190 889 1017 1826 1549 1548 1463 1299 1212 1606 1327 857 886 1472 1541 1453 1176 1231 1350 1405 1745 1863 1596
264 299 451 392 746 835 196 60 117 162 31 42 350 581 726 649 582 508 177 55 132 374 694 861 684 1172 1356 1066 1083 1301 1240 1255 1292 1409 1589 1522 941 1139 1237 1449 1601 1454 1267 1470 1410 1699 1632 1307 1722
207 303 477 702 660 665 9 39 58 201 93 33 378 604 563 568 562 538 258 82 122 309 678 944 986 990 873 1068 1113 1281 1387 1384 1621 1986 1923 1392 1219 1616 1301 1204 1164 1233 1272 1064 1135 1478 1514 1227 1586
394 530 469 341 637 704 0 47 65 52 32 18 411 403 369 447 415 303 220 182 182 334 542 641 959 1118 1017 1173 1301 1179 1443 1388 1376 1380 1764 1653 1397 1629 1484 1294 1248 1547 1252 1605 1800 1767 2104 1646 1479
476 154 283 618 695 0 9 53 46 6 82 258 383 270 267 150 176 98 79 108 170 279 432 594 936 1257 1153 1393 1259 1371 1246 1316 1153 1337 1529 1581 1536 1518 1447 1398 1399 1486 1714 1798 1920 1984 1954 1653 1602
466 495 524 731 288 5 11 52 39 0 97 241 281 279 314 279 173 135 186 149 293 358 356 527 899 1138 1195 1262 1355 1168 1040 1094 1379 1185 1184 1726 1657 1414 1227 1429 1511 1682 1855 1957 2189 2382 2324 2024 1677
267 460 441 336 347 62 10 33 90 0 25 165 191 251 331 452 510 581 519 404 421 490 662 693 882 912 1146 1210 1266 1121 890 775 978 1200 1371 1781 1711 1547 1465 1390 1613 1730 1917 2249 2381 2484 2337 2302 2071
489 544 629 251 396 111 135 441 54 0 2 51 107 174 279 400 501 587 676 756 740 785 874 945 822 873 1002 959 1025 873 788 825 936 1037 1503 1762 1826 1751 1579 1389 1633 1862 2053 2185 2410 2440 2927 2263 2405
252 468 414 381 98 228 99 193 65 0 5 36 29 53 182 302 440 561 663 723 764 843 962 972 991 1009 1002 1000 879 824 891 892 1072 1485 1590 1753 1774 1704 1814 1586 1718 2109 1993 2082 2251 2500 2574 2662 2814
252 155 142 215 254 236 145 177 53 14 28 67 48 32 37 65 111 197 314 501 632 761 896 1045 1033 1127 1106 862 838 694 751 811 1020 1423 1721 1877 1935 2011 2141 2039 2122 2242 2122 1904 2013 2271 2651 2559 2468
216 450 622 569 465 408 371 401 260 98 73 100 100 93 90 85 111 111 122 122 162 457 762 982 1119 1768 1154 943 772 813 1059 1126 1318 1482 1652 1860 1937 1962 2224 2202 2187 2283 2201 2221 2139 2047 2179 2084 2414
382 430 403 290 167 651 347 474 394 192 203 205 175 160 167 179 180 188 168 170 171 225 363 884 1217 1405 1451 1261 1269 1252 1493 1474 1450 1453 1466 1563 1672 1915 2048 2148 2127 2258 2184 2413 2382 2153 1747 1704 1720
227 259 316 222 398 438 473 539 617 498 314 214 207 203 212 248 265 274 246 235 226 277 395 698 1301 1529 1670 1836 1397 1484 1506 1524 1513 1574 1583 1638 1643 1751 2183 2267 2275 2859 2331 2027 2360 2190 2039 1700 1748
321 192 172 268 390 490 37 55 115 449 466 445 468 441 379 325 303 335 356 338 265 322 381 502 1054 1563 1486 1827 1790 2167 1688 1714 1899 1953 1782 1805 1781 1873 2225 2436 2560 2669 2200 2521 2107 2218 2166 2376 1675
350 0 135 208 193 382 303 397 195 0 309 554 615 665 654 738 616 598 478 423 371 350 427 494 881 1213 1585 1884 1965 1781 2086 1960 1891 1839 2116 2205 2299 1808 1976 2173 2329 2519 2164 2415 2322 2317 2289 1941 1764
5 0 0 0 22 223 11 407 125 61 296 443 501 630 799 995 854 802 842 708 503 418 496 586 953 1590 1288 1607 1674 2320 2382 2417 2010 2046 1646 1788 1826 1826 1756 1763 2153 2344 2144 2071 2314 2343 2453 2579 2106
16 8 79 105 125 120 0 213 250 128 0 10 230 530 510 617 960 898 798 705 465 463 508 598 1053 1588 1313 1251 1715 2092 2306 2543 2606 2629 2012 2083 1820 1969 2741 2529 2601 2279 1954 1862 1594 1856 2345 2702 2543
153 49 32 99 25 77 0 216 108 0 0 0 0 0 0 0 62 496 476 430 431 364 458 641 1007 1650 1520 1221 2001 1996 2149 1653 2067 2288 2129 1940 2185 2461 2327 1690 1849 1756 1226 1809 1512 1236 1766 2089 2742
2 2 0 0 0 9 23 58 4 0 0 0 10 41 63 83 128 197 272 408 510 588 544 489 715 1035 1195 1420 1703 2078 2289 2363 2088 2548 2722 2282 3142 1787 1070 433 837 561 831 1516 1788 1760 1746 2144 1879
0 0 0 0 29 18 0 0 60 29 0 0 76 154 179 318 674 1238 1134 1599 1990 2107 2297 2620 2556 2652 2600 2293 1981 1816 1931 2105 2355 2467 2727 2581 2122 1500 1166 1407 1429 881 881 1424 1752 2445 1799 2115 2200
0 0 0 0 0 22 5 0 0 0 0 0 0 65 379 697 1121 1484 1673 1679 2115 2457 2116 1925 2482 2446 2662 3092 2913 2256 2107 2006 2007 1970 1949 1829 1777 1708 1448 1187 1143 1168 1499 1701 2489 2767 2554 2551 2384
0 0 0 0 0 0 0 0 0 0 0 0 3 318 532 792 1137 1507 1563 1262 1034 1167 1266 1023 1133 1139 1277 1934 2344 1823 1342 1326 1028 938 880 898 854 976 942 949 868 662 734 1005 1954 2449 2581 2162 2231
CIN
-98 -174 -265 -230 -82 -81 -27 -33 -107 -97 -10 -88 -0 -0 -10 -78 -105 -34 -202 -211 -102 -29 -0 -0 -0 -0 -0 -0 -0 -0 -0 -0 -3 -4 -4 -27 -25 -9 -3 -5 -15 -8 -2 -11 -18 -10 -12 -22 -13
-212 -235 -208 -154 -40 -1 -8 -52 -0 -95 -111 -117 -8 -92 -73 -55 -107 -217 -292 -166 -99 -74 -1 -0 -0 -0 -0 -0 -0 -0 -0 -0 -7 -12 -8 -10 -9 -11 -5 -10 -14 -19 -9 -4 -10 -20 -15 -15 -12
-375 -331 -141 -100 -73 -3 -4 -36 -0 -116 -131 -136 -109 -139 -152 -117 -193 -336 -240 -131 -72 -34 -13 -0 -0 -0 -0 -0 -0 -0 -0 -0 -1 -1 -1 -2 -0 -0 -0 -0 -0 -3 -1 -0 -1 -3 -0 -11 -21
-406 -202 -123 -39 -13 -39 -22 -29 -133 -116 -137 -164 -177 -155 -167 -158 -284 -335 -246 -119 -32 -19 -40 -0 -0 -0 -0 -0 -0 -0 -0 -0 -0 -0 -0 -0 -0 -0 -0 -0 -1 -0 -1 -2 -9 -13 -10 -3 -10
-191 -135 -57 -35 -36 -0 -32 -54 -85 -73 -115 -40 -47 -173 -188 -104 -141 -240 -210 -141 -65 -18 -46 -0 -0 -0 -0 -0 -0 -0 -0 -0 -0 -0 -0 -0 -0 -0 -0 -0 -0 -0 -0 -0 -0 -0 -0 -0 -4
-207 -203 -42 -10 -45 -69 -61 -70 -66 -95 -128 -156 -0 -206 -145 -76 -169 -233 -167 -141 -105 -41 -33 -11 -0 -0 -1 -0 -2 -0 -0 -0 -0 -0 -0 -0 -0 -0 -0 -0 -0 -0 -0 -0 -0 -0 -0 -0 -0
-152 -100 -25 -24 -4 -46 -53 -80 -56 -88 -25 -46 -172 -158 -173 -87 -109 -183 -163 -131 -131 -55 -29 -16 -7 -1 -2 -1 -1 -0 -1 -0 -0 -0 -0 -0 -0 -0 -0 -0 -0 -0 -0 -0 -0 -0 -0 -0 -0
-171 -106 -23 -64 -114 -0 -68 -74 -125 -0 -111 -176 -169 -106 -160 -110 -83 -125 -186 -133 -88 -75 -34 -15 -9 -5 -2 -3 -0 -0 -0 -0 -0 -0 -0 -0 -0 -0 -0 -0 -0 -0 -0 -0 -0 -0 -0 -1 -0
-243 -41 -19 -30 -28 -35 -71 -66 -158 -158 -70 -0 -196 -170 -172 -136 -98 -107 -192 -125 -73 -40 -30 -17 -2 -0 -1 -4 -1 -0 -0 -0 -0 -0 -0 -0 -0 -0 -0 -0 -3 -0 -0 -0 -0 -0 -0 -1 -0
-164 -46 -43 -70 -67 -54 -71 -83 -92 -97 -138 -192 -191 -197 -169 -150 -121 -110 -195 -232 -161 -89 -31 -16 -19 -2 -0 -1 -1 -0 -0 -0 -0 -0 -0 -0 -0 -0 -0 -0 -0 -0 -0 -0 -0 -0 -0 -3 -2
-211 -64 -98 -82 -92 -98 -45 -87 -157 -83 -83 -121 -137 -197 -197 -169 -136 -120 -174 -224 -195 -118 -49 -40 -29 -22 -16 -6 -5 -0 -0 -0 -0 -0 -0 -0 -0 -0 -0 -0 -2 -1 -3 -7 -1 -0 -1 -3 -4
-84 -151 -125 -119 -110 -92 -0 -105 -139 -127 -95 -173 -179 -235 -247 -194 -178 -188 -208 -220 -203 -148 -88 -73 -50 -31 -31 -15 -10 -8 -0 -1 -0 -0 -0 -0 -0 -0 -1 -5 -8 -4 -13 -4 -3 -1 -5 -1 -5
-134 -135 -147 -113 -98 -0 -85 -102 -125 -185 -207 -191 -213 -241 -234 -284 -254 -269 -259 -241 -222 -180 -118 -96 -74 -46 -34 -15 -15 -11 -14 -8 -11 -4 -2 -0 -2 -7 -12 -16 -19 -14 -6 -6 -7 -4 -5 -9 -6
-178 -164 -120 -96 -92 -34 -32 -113 -128 -0 -216 -195 -204 -207 -186 -194 -224 -243 -239 -228 -178 -162 -168 -127 -108 -72 -48 -41 -33 -45 -38 -31 -14 -18 -22 -6 -11 -25 -30 -28 -24 -22 -14 -5 -6 -7 -7 -10 -16
-198 -69 -65 -63 -93 -94 -39 -71 -75 -0 -279 -203 -191 -192 -173 -132 -118 -93 -102 -145 -137 -118 -96 -110 -118 -118 -97 -86 -71 -70 -81 -76 -63 -48 -39 -24 -29 -41 -45 -29 -28 -24 -22 -18 -4 -12 -12 -15 -21
-96 -102 -31 -66 -58 -148 -54 -17 -168 -0 -124 -253 -215 -210 -193 -147 -116 -104 -90 -89 -87 -84 -106 -118 -121 -132 -142 -147 -120 -129 -147 -132 -95 -72 -54 -51 -53 -54 -49 -36 -25 -23 -21 -16 -12 -9 -13 -9 -16
-112 -33 -51 -45 -101 -78 -64 -37 -143 -0 -132 -252 -305 -283 -204 -155 -144 -124 -111 -105 -98 -114 -116 -154 -160 -137 -170 -213 -225 -235 -207 -195 -125 -62 -52 -52 -52 -53 -46 -30 -29 -33 -21 -20 -11 -5 -3 -1 -4
-52 -47 -83 -57 -75 -69 -62 -39 -136 -267 -255 -194 -226 -287 -300 -286 -240 -214 -208 -155 -137 -154 -184 -194 -195 -196 -216 -240 -269 -282 -258 -228 -167 -101 -60 -49 -44 -49 -39 -33 -36 -31 -20 -18 -14 -16 -6 -6 -3
-116 -81 -62 -65 -93 -67 -38 -45 -49 -184 -197 -207 -210 -243 -261 -267 -232 -257 -277 -324 -330 -266 -268 -251 -237 -165 -239 -255 -264 -243 -190 -178 -151 -119 -86 -62 -51 -41 -38 -33 -30 -35 -27 -24 -23 -18 -9 -3 -2
-129 -103 -62 -100 -124 -85 -79 -53 -78 -152 -151 -147 -176 -204 -210 -198 -208 -238 -302 -327 -340 -353 -410 -326 -303 -271 -255 -237 -216 -189 -140 -135 -128 -125 -143 -144 -115 -84 -70 -69 -40 -32 -25 -41 -38 -36 -12 -4 -6
-113 -104 -109 -59 -114 -122 -90 -35 -63 -102 -162 -178 -176 -187 -189 -170 -158 -187 -272 -327 -350 -383 -405 -389 -357 -326 -291 -227 -262 -232 -226 -216 -203 -208 -204 -200 -199 -161 -106 -83 -76 -30 -53 -48 -40 -43 -34 -10 -2
-69 -138 -143 -122 -76 -8 -56 -23 -71 -72 -88 -147 -120 -146 -142 -155 -183 -199 -217 -288 -331 -324 -377 -442 -411 -378 -381 -318 -273 -226 -214 -180 -153 -152 -154 -180 -225 -197 -149 -118 -88 -65 -67 -35 -54 -37 -44 -23 -19
-64 -1 -131 -119 -92 -74 -85 -20 -9 -4 -64 -60 -41 -72 -86 -123 -153 -135 -146 -205 -236 -286 -328 -417 -480 -459 -410 -381 -333 -309 -277 -233 -224 -207 -227 -220 -193 -245 -195 -172 -142 -89 -66 -47 -37 -67 -71 -56 -53
-18 -0 -0 -0 -56 -24 -44 -47 -10 -61 -46 -30 -24 -53 -81 -96 -162 -145 -137 -167 -248 -300 -328 -364 -483 -452 -457 -431 -418 -301 -259 -235 -205 -224 -271 -270 -254 -245 -251 -244 -185 -160 -186 -190 -211 -85 -14 -42 -59
-96 -43 -21 -19 -25 -20 -0 -100 -28 -116 -44 -195 -100 -52 -88 -131 -137 -184 -207 -226 -309 -300 -366 -321 -426 -414 -512 -495 -422 -383 -318 -246 -214 -200 -246 -244 -244 -231 -175 -165 -115 -146 -191 -208 -206 -253 -77 -11 -38
-84 -36 -22 -22 -45 -31 -0 -53 -59 -0 -0 -0 -0 -0 -0 -0 -278 -266 -294 -311 -336 -387 -430 -424 -398 -371 -439 -487 -373 -367 -320 -312 -233 -198 -191 -207 -161 -126 -170 -289 -218 -181 -109 -167 -271 -308 -118 -16 -21
-11 -6 -0 -0 -0 -6 -91 -124 -9 -0 -0 -0 -336 -295 -356 -405 -428 -423 -464 -487 -497 -465 -510 -535 -489 -458 -445 -380 -366 -316 -265 -235 -214 -150 -93 -116 -14 -188 -311 -514 -352 -358 -254 -83 -210 -157 -85 -27 -53
-0 -0 -0 -0 -35 -22 -0 -0 -32 -129 -0 -0 -296 -364 -447 -442 -443 -412 -450 -435 -374 -354 -345 -302 -287 -249 -224 -235 -256 -251 -231 -187 -136 -86 -47 -31 -56 -140 -210 -161 -139 -256 -221 -96 -99 -38 -54 -76 -13
-0 -0 -0 -0 -0 -23 -8 -0 -0 -0 -0 -0 -0 -449 -440 -402 -382 -367 -371 -393 -340 -284 -325 -333 -219 -184 -141 -74 -71 -131 -142 -147 -121 -105 -87 -88 -74 -63 -104 -145 -146 -151 -86 -49 -18 -3 -37 -26 -28
-0 -0 -0 -0 -0 -0 -0 -0 -0 -0 -0 -0 -30 -469 -418 -380 -346 -310 -322 -370 -427 -398 -358 -398 -354 -314 -275 -146 -69 -113 -161 -146 -157 -155 -152 -153 -191 -179 -194 -192 -190 -242 -206 -98 -1 -1 -10 -17 -27
Wind_Speed
11 6 2 0 1 1 3 4 1 10 9 1 13 4 5 3 2 1 6 10 21 19 16 18 17 16 17 16 15 15 15 15 14 13 12 11 10 8 6 4 2 2 3 3 3 5 5 6 6
8 3 1 1 2 6 4 2 7 7 4 8 10 5 3 3 4 8 12 16 20 18 17 17 17 16 16 16 15 15 15 15 13 12 11 10 9 7 6 4 2 1 1 1 1 1 2 3 3
7 3 1 2 2 6 5 3 8 5 7 12 5 5 2 3 3 14 8 20 19 18 17 17 17 16 17 16 14 14 14 14 13 11 10 9 8 8 7 7 6 3 2 2 2 3 1 2 2
3 1 2 2 7 3 2 6 9 10 5 4 7 6 5 5 8 8 19 20 18 16 16 17 17 18 17 16 15 14 13 12 12 11 10 9 7 6 5 4 4 5 4 3 4 5 5 4 3
1 1 2 1 3 2 2 7 12 7 4 5 2 5 5 4 7 14 19 17 18 16 14 16 15 16 15 16 15 13 12 12 11 10 9 8 8 7 6 6 6 5 5 4 5 6 6 6 5
1 1 1 4 4 4 6 11 9 2 4 7 7 7 5 8 15 17 17 16 16 15 14 14 15 15 15 16 15 13 12 11 11 10 9 9 8 8 7 7 8 7 7 7 6 7 6 6 5
3 1 3 3 4 5 6 10 5 6 7 4 10 6 4 7 13 15 15 14 14 14 14 13 14 14 16 15 15 14 13 12 11 10 10 9 8 9 8 8 8 9 9 9 9 8 9 6 7
2 2 4 7 4 4 8 9 7 7 3 12 4 5 7 11 15 14 13 12 12 13 13 13 12 13 12 13 14 13 13 12 12 11 11 10 10 9 10 8 10 9 11 10 9 8 9 7 8
2 2 4 4 5 5 8 4 5 5 12 3 2 4 10 21 17 15 14 12 11 10 12 12 12 12 12 11 11 13 14 13 12 12 12 10 8 7 8 6 5 8 11 10 9 9 9 8 7
1 2 1 1 3 5 6 5 7 4 10 4 8 13 20 21 18 17 17 15 15 15 14 12 13 12 11 9 9 11 9 9 9 9 8 8 7 6 7 7 8 9 9 10 9 10 9 8 4
2 2 1 1 6 6 4 6 4 6 6 6 10 19 19 20 17 17 17 18 17 15 12 14 13 12 12 10 7 6 6 6 7 9 8 8 6 6 6 4 5 5 6 6 6 6 5 6 5
3 3 2 1 5 4 8 10 4 1 5 4 18 22 19 19 17 17 16 15 15 16 15 14 14 13 13 9 8 8 7 7 6 8 9 7 6 6 6 4 5 5 5 6 6 5 6 7 7
1 2 3 5 2 6 11 7 6 4 9 16 18 19 18 16 16 15 14 13 12 15 15 15 14 13 12 12 8 8 8 7 8 8 9 8 8 7 6 6 6 5 5 6 6 7 7 7 6
2 5 8 3 5 5 8 7 3 5 11 16 17 16 16 16 17 13 12 13 14 13 15 15 15 14 13 12 12 9 9 9 9 8 9 10 8 7 7 7 7 6 6 6 7 7 7 7 6
1 1 3 7 2 4 7 5 4 13 13 15 14 14 14 15 13 15 16 16 16 14 13 15 14 15 15 15 13 10 9 9 9 9 11 11 10 10 9 7 7 7 6 8 7 7 6 7 6
1 2 1 2 1 2 1 2 6 14 14 14 13 13 13 15 18 16 16 16 14 14 15 14 13 15 16 15 12 10 10 9 9 9 8 11 12 11 9 8 8 8 7 6 7 7 7 7 7
4 3 2 1 1 3 2 1 5 12 12 12 13 13 13 14 15 16 17 16 15 15 15 15 16 17 16 15 12 12 12 10 10 9 9 11 11 11 10 9 9 9 7 8 7 7 7 8 7
3 3 2 2 2 4 4 5 7 13 13 13 13 14 13 14 18 18 18 18 17 16 16 15 14 16 15 10 10 9 9 10 10 10 10 12 10 12 11 10 11 9 8 8 8 9 7 8 8
6 1 1 3 4 3 7 7 5 13 13 13 13 14 16 17 17 16 17 18 16 16 16 16 16 15 12 10 9 10 11 10 10 10 13 12 11 11 11 10 10 10 10 11 10 10 10 9 8
1 2 3 3 4 8 2 2 3 11 14 15 14 15 16 17 16 17 16 17 18 19 18 16 17 15 13 11 10 8 7 9 9 9 11 13 14 14 12 12 11 12 10 11 12 10 10 9 8
3 5 4 2 4 1 2 3 3 5 10 8 14 14 16 17 17 17 16 18 17 18 17 16 16 16 14 14 9 8 8 6 8 10 11 13 15 15 15 13 12 11 11 11 11 11 13 11 11
3 6 3 7 6 1 4 2 3 5 6 11 13 14 17 18 18 17 17 16 16 17 15 16 15 15 14 14 13 15 12 12 12 11 11 11 14 15 15 14 13 13 10 10 10 10 11 10 13
2 1 9 5 4 2 2 4 3 1 7 12 12 14 16 17 18 19 20 17 16 14 15 14 13 14 14 14 14 12 13 12 11 10 10 10 8 13 13 12 12 12 10 10 12 12 12 11 12
10 6 8 5 3 3 2 4 2 3 5 6 11 12 14 14 16 17 16 12 13 11 13 12 13 13 11 12 15 16 15 13 12 11 11 9 8 8 11 13 11 12 11 11 10 11 14 12 13
8 5 3 3 3 1 4 4 2 5 8 11 12 8 8 8 11 12 11 8 9 9 9 10 11 12 13 14 15 17 17 15 15 13 11 12 11 11 13 13 11 10 11 10 9 6 10 14 14
11 5 3 1 1 3 3 4 3 3 7 5 3 7 6 6 4 3 1 5 6 7 7 8 10 11 10 12 13 12 14 12 12 14 12 11 12 10 9 12 10 12 12 12 11 6 8 13 12
5 4 3 6 2 3 0 2 6 1 9 12 11 12 14 13 13 12 12 12 12 11 9 6 3 4 6 9 11 12 12 14 13 14 11 11 9 8 11 10 10 11 11 11 7 7 11 12 10
3 8 4 1 4 4 3 4 2 3 10 9 11 13 13 15 16 15 16 16 14 13 12 12 11 9 7 5 5 7 10 11 11 11 12 11 12 12 13 15 13 14 15 13 9 10 12 11 10
5 4 6 4 3 2 4 3 1 7 5 3 7 10 11 13 13 13 14 13 13 13 14 12 12 12 11 10 9 6 5 4 4 6 9 10 12 13 15 15 15 15 15 14 11 14 11 13 11
1 3 6 3 5 1 2 2 3 1 5 7 7 8 11 12 13 13 13 14 13 13 12 11 9 8 6 5 4 3 0 2 5 8 11 12 15 14 16 15 15 15 14 14 13 14 12 12 14
Wind_Direction
138 144 142 167 166 8 55 71 73 116 147 186 151 196 193 57 164 12 143 154 143 148 155 156 146 148 146 143 143 140 145 149 149 146 149 149 152 152 158 151 145 97 82 86 87 95 94 105 115
139 124 53 116 46 72 55 58 123 127 110 136 140 118 119 110 84 124 139 157 146 144 157 156 152 150 152 149 149 152 155 155 153 152 157 157 162 165 179 185 182 273 26 33 46 49 83 96 107
139 25 353 43 81 61 82 101 125 119 131 145 139 52 44 43 63 146 136 154 144 149 158 156 155 158 157 154 151 158 160 159 162 163 168 170 177 180 188 188 186 214 280 286 306 319 337 359 21
158 110 114 17 69 84 80 132 134 137 131 119 118 82 83 343 144 152 149 150 148 151 159 152 159 163 161 161 160 165 165 166 168 172 175 172 181 184 186 197 193 206 219 265 285 298 304 309 317
147 329 24 63 43 64 97 128 141 143 115 111 122 97 82 31 109 140 150 154 153 154 155 159 167 166 166 168 172 175 175 177 180 185 191 197 207 211 215 221 221 238 233 241 269 275 283 289 297
150 320 6 44 65 73 111 141 149 111 142 133 110 113 97 122 137 148 153 157 157 154 156 162 171 170 171 177 181 185 187 188 189 199 212 221 225 227 224 235 241 235 247 264 254 269 268 270 271
273 195 30 1 76 118 142 159 180 140 149 147 134 102 100 151 145 149 154 156 158 161 164 170 176 178 180 186 191 193 196 200 205 214 221 228 234 235 239 249 257 262 266 256 266 262 275 250 258
210 268 25 32 20 65 140 163 151 157 97 125 155 146 159 166 153 147 152 156 163 168 174 177 180 184 191 189 199 203 207 212 218 222 229 234 239 242 245 253 245 266 278 277 274 262 261 264 254
214 98 52 27 19 344 159 152 148 95 138 111 80 120 125 142 148 150 155 161 167 177 183 188 188 192 193 203 198 206 215 219 222 228 234 235 243 241 253 264 287 264 267 269 267 262 264 261 254
44 87 70 327 343 321 215 174 144 141 151 112 87 99 129 144 156 160 169 174 181 184 189 194 199 200 201 204 211 214 217 221 223 229 238 243 248 256 267 275 269 267 267 269 264 263 264 266 258
112 136 164 51 329 321 193 141 120 147 203 185 159 144 145 152 164 173 181 185 188 189 191 197 200 203 205 210 208 216 217 224 226 233 235 242 253 245 244 255 252 254 241 262 235 252 255 247 230
168 210 191 267 315 299 160 132 92 242 349 147 148 151 151 161 172 180 185 187 191 196 201 198 202 205 210 209 212 217 221 220 227 228 233 242 243 246 250 253 254 248 257 262 261 265 251 253 260
262 291 274 321 344 90 128 113 122 54 96 120 136 151 159 165 177 188 193 194 195 203 206 207 204 209 212 214 219 225 224 225 231 232 228 234 243 247 249 252 255 260 261 264 267 269 280 275 263
277 297 317 344 85 100 123 116 146 115 130 130 148 161 167 174 184 186 197 203 207 209 209 207 211 210 212 218 220 222 226 229 231 233 234 230 240 243 247 253 258 260 262 266 274 276 281 280 281
255 300 38 43 66 104 130 137 67 144 149 149 160 169 179 193 191 203 203 209 210 212 211 212 211 210 213 217 223 224 227 225 230 234 233 230 230 233 243 246 257 259 265 274 263 264 266 273 275
44 47 67 10 327 80 294 331 118 160 160 158 170 180 193 200 206 214 218 222 218 221 214 212 212 211 214 218 220 226 227 230 230 229 232 229 228 231 234 240 245 255 261 267 276 280 269 261 266
22 111 41 358 257 132 226 296 141 170 182 171 179 192 202 212 223 229 229 229 225 223 221 214 213 217 215 216 217 221 225 227 231 229 230 232 234 234 239 243 247 247 251 257 263 273 270 276 265
121 121 152 284 93 216 181 232 167 181 191 198 190 197 206 216 225 225 231 234 231 227 224 220 214 220 215 216 222 234 235 234 237 237 237 231 231 231 231 242 247 244 246 251 256 265 267 267 277
106 120 314 254 224 280 239 244 191 185 204 206 208 209 214 220 231 231 230 232 233 232 226 220 216 216 204 209 216 226 231 233 235 238 244 244 242 246 240 246 248 242 242 242 243 251 260 262 259
163 278 269 273 339 209 208 229 208 184 219 213 211 215 225 230 235 236 234 233 227 227 222 218 219 213 208 210 215 227 225 238 246 245 245 240 239 234 233 235 234 233 235 234 238 235 246 253 257
235 236 205 177 108 166 223 179 203 212 230 224 223 224 229 233 236 238 233 230 228 230 220 218 216 213 211 214 209 218 230 237 235 233 236 230 228 230 230 232 233 232 233 239 231 230 233 253 251
281 223 218 162 191 130 325 84 240 227 247 236 232 225 230 232 233 241 239 233 227 228 223 222 216 214 213 204 209 212 218 228 232 234 234 230 223 226 225 230 232 232 235 241 239 237 241 238 258
326 80 155 135 134 221 165 247 134 239 235 242 237 234 235 233 232 234 234 232 228 225 217 216 215 219 214 201 214 221 235 241 249 243 245 242 236 228 230 230 229 235 243 249 258 240 233 243 252
150 102 91 98 193 253 17 259 123 193 246 250 237 238 246 232 237 241 245 241 234 223 219 216 207 213 209 208 216 223 230 232 242 236 240 235 231 225 225 224 219 218 219 221 213 253 266 251 245
217 206 153 172 183 34 341 210 308 314 312 278 289 285 295 276 250 250 259 263 268 247 233 223 215 216 212 214 216 219 228 232 237 236 237 235 232 224 211 204 208 218 218 213 224 199 254 257 248
186 235 231 244 208 70 146 210 151 347 335 343 351 28 34 30 353 351 316 257 261 266 245 216 234 232 214 224 232 232 235 237 236 237 238 242 242 235 199 203 204 191 221 215 193 165 207 249 241
156 197 26 105 52 253 71 232 251 247 55 32 48 60 51 57 59 62 65 58 48 38 32 14 340 283 257 244 242 238 238 240 244 245 244 245 245 217 222 229 225 219 228 249 197 198 215 214 225
266 130 147 80 168 208 165 279 204 354 358 16 57 66 61 62 64 66 66 63 58 56 57 56 52 49 37 9 309 285 273 261 260 261 255 250 244 238 245 254 255 247 240 233 217 214 209 176 222
142 165 69 100 314 218 183 207 186 293 339 61 64 67 73 74 73 73 72 71 70 67 59 54 52 45 33 27 25 15 354 329 289 263 263 262 263 260 257 260 265 260 255 243 222 223 213 196 203
73 144 172 213 172 48 312 138 352 3 116 110 89 73 72 76 81 80 76 73 71 69 65 58 52 49 42 39 37 54 90 301 312 296 288 287 284 281 271 266 259 254 250 257 254 235 223 217 216